RH
60 52 64 61 54 46 44 42 39 41 44 33 35 46 52 67 60 62 80 81 86 85 89 87 87 83 78 75 74 77 77 76 74 74 74 73 72 73 72 71 77 78 76 73 71 70 70 72 74
66 45 60 63 44 50 46 41 37 33 27 29 49 52 50 73 72 86 85 79 84 86 87 86 87 85 82 80 80 79 79 77 75 78 76 77 75 72 69 71 76 77 76 74 72 72 72 73 73
48 43 50 57 54 44 46 37 33 27 25 26 38 52 62 70 72 77 76 85 86 88 88 86 88 86 84 82 79 80 80 78 76 79 78 80 78 75 72 74 77 76 76 74 72 72 71 72 73
44 51 45 36 40 36 39 33 30 24 23 23 53 65 66 61 65 72 81 86 93 94 94 90 88 87 85 81 79 78 76 80 76 81 80 79 79 77 74 72 76 77 78 75 73 72 70 71 70
55 52 48 50 41 33 32 28 28 30 30 30 60 78 78 60 65 71 88 85 93 96 95 91 89 85 84 81 78 78 77 83 79 78 80 79 78 78 76 73 76 80 80 77 74 71 69 68 69
50 43 42 41 38 30 30 29 30 32 31 25 49 79 78 66 68 67 84 91 87 92 91 88 89 88 86 82 80 81 78 81 82 80 82 81 79 78 79 77 75 77 76 77 76 74 71 69 69
49 50 44 52 39 35 32 27 31 33 30 29 28 78 66 60 63 64 70 88 84 84 89 91 90 88 88 87 84 87 81 84 83 82 83 82 82 82 81 80 78 77 77 80 78 75 72 70 70
59 45 46 44 41 39 29 28 29 31 28 24 41 62 70 54 56 59 58 67 83 84 89 94 96 93 94 93 88 88 86 86 86 88 85 86 88 87 85 83 81 76 78 78 79 78 76 72 70
47 45 44 42 39 38 28 27 25 27 28 24 25 36 42 45 49 64 66 63 93 90 93 95 98 97 97 97 93 90 90 90 88 90 88 89 97 96 93 90 87 80 77 79 78 79 81 79 76
50 47 37 35 31 32 33 36 35 30 31 29 28 26 24 25 33 52 64 71 82 95 96 97 98 98 98 89 95 97 96 97 97 96 96 98 97 98 93 94 90 84 81 81 80 78 82 86 95
49 41 39 37 36 35 34 38 35 37 36 30 28 28 24 25 24 23 27 31 49 51 78 89 96 97 98 95 97 99 99 100 99 98 98 98 96 99 99 99 99 98 90 97 92 93 97 96 97
44 36 38 37 37 36 38 37 37 35 32 28 28 30 30 25 25 28 37 46 53 58 62 72 90 94 97 98 98 98 90 97 98 99 98 99 99 99 99 99 99 99 99 98 98 99 97 96 96
44 37 33 33 35 36 36 36 38 34 30 29 28 28 30 27 30 40 50 58 66 70 71 76 82 89 89 90 95 98 99 99 98 99 98 99 99 99 98 98 99 99 99 99 99 98 98 96 93
41 39 38 36 35 34 33 38 36 28 30 27 27 27 28 32 31 52 64 73 80 73 74 74 79 84 83 91 94 96 98 98 99 99 98 97 95 94 97 97 97 99 99 99 99 98 98 98 95
39 42 40 39 35 37 37 39 36 30 30 29 29 30 29 53 48 60 70 80 86 82 77 74 75 85 87 87 88 98 99 98 99 98 96 90 91 88 90 95 99 98 99 97 99 98 98 98 96
48 47 51 36 34 34 36 46 33 29 29 29 29 32 35 56 68 74 76 81 84 88 80 74 69 80 87 90 91 90 95 98 97 98 97 94 90 93 96 99 97 98 98 98 98 99 100 99 99
54 60 55 42 35 35 36 43 32 30 32 32 31 32 51 70 70 71 71 73 71 69 71 71 69 71 85 89 93 94 92 97 98 99 98 95 94 92 95 97 96 97 98 98 98 99 98 100 100
61 65 56 52 37 36 41 42 38 32 32 33 38 42 63 75 71 62 58 52 56 56 56 61 60 63 74 95 94 97 97 95 98 98 97 94 92 92 97 96 97 98 99 99 99 98 99 99 99
60 62 58 48 36 44 46 41 40 33 33 37 54 80 64 54 42 35 35 40 37 36 42 54 62 64 69 78 94 97 96 96 98 97 93 91 94 95 98 98 97 98 97 96 98 99 97 99 96
47 50 51 44 37 34 38 34 33 35 44 58 68 58 41 36 34 32 30 32 35 36 37 38 40 54 63 64 78 98 87 88 98 94 92 91 95 96 96 97 97 98 99 99 99 98 99 99 96
42 51 50 49 42 39 41 45 43 34 42 34 37 38 39 40 47 50 46 47 47 48 47 42 42 41 49 66 76 86 91 88 91 91 94 96 97 96 94 96 98 98 97 98 98 97 95 99 96
48 38 36 36 42 54 38 53 41 52 44 41 52 56 56 57 59 66 66 65 64 64 60 62 55 53 44 51 74 92 96 93 82 91 92 94 96 96 94 97 97 97 97 97 98 97 97 95 97
38 38 36 38 46 63 53 63 61 59 51 49 58 63 64 64 65 70 77 73 72 74 69 61 55 53 49 49 60 90 96 96 91 93 95 93 97 96 95 97 96 96 96 97 98 99 98 96 96
32 36 39 50 59 63 56 54 57 64 58 54 63 62 62 62 63 65 68 61 59 61 60 71 65 61 55 54 55 82 92 94 93 94 97 95 98 98 96 94 95 96 97 98 97 97 97 96 96
39 42 63 55 43 34 50 57 50 62 58 60 64 65 63 64 68 71 70 60 57 57 63 58 63 66 66 66 64 73 90 93 94 94 96 96 98 98 98 97 98 97 98 96 97 98 97 95 92
47 46 64 77 78 59 50 70 59 61 68 63 58 64 64 68 72 69 64 62 65 63 64 65 67 66 63 62 68 80 88 94 96 97 98 98 97 95 95 98 98 97 98 98 98 99 97 94 95
50 58 49 66 55 82 66 59 75 74 77 67 62 55 53 57 59 63 58 52 52 57 60 64 67 66 68 74 80 88 91 91 97 93 98 98 97 96 92 93 96 97 96 95 96 99 98 95 94
52 49 68 66 94 95 74 65 56 85 75 70 61 54 53 54 57 56 55 56 57 61 62 64 66 72 77 82 82 82 90 88 91 90 98 97 98 97 96 96 96 96 95 93 92 98 97 94 97
72 73 64 69 76 96 90 60 83 88 77 67 63 50 48 49 52 57 55 56 59 65 65 70 72 71 72 78 78 84 86 87 86 91 93 97 98 97 95 96 96 95 95 93 94 96 95 95 97
64 60 72 94 86 95 97 70 40 54 71 67 67 46 42 47 50 55 54 56 65 70 70 73 67 69 70 68 75 79 82 85 90 96 90 92 97 95 94 95 93 92 94 96 95 94 93 95 97
Wind_Speed
3 3 3 6 5 6 2 1 3 2 2 0 3 3 6 2 2 4 2 10 9 13 12 14 16 15 15 14 13 13 13 11 11 10 9 8 6 7 6 6 6 8 10 9 8 8 8 8 9
2 2 5 3 6 4 4 4 2 2 3 4 5 3 5 2 2 1 3 6 12 14 14 14 19 17 16 14 13 13 12 11 12 12 11 12 9 6 5 4 3 8 8 8 7 7 7 7 8
3 5 4 5 3 4 4 3 4 3 3 2 4 4 2 2 3 4 3 8 6 6 7 8 14 13 12 12 13 12 11 11 11 11 12 12 11 11 10 8 5 7 7 6 6 6 6 6 7
3 5 5 5 1 2 2 3 4 5 3 6 3 5 1 3 3 6 8 10 9 7 7 10 14 14 13 13 13 12 12 13 12 10 12 11 11 11 10 8 8 9 9 7 5 4 4 5 5
4 3 4 3 3 3 2 4 4 2 3 5 3 2 1 4 3 7 9 9 10 7 6 10 16 16 15 14 14 13 13 14 12 12 12 11 10 10 10 8 7 6 10 9 7 3 2 4 6
5 3 4 1 2 2 3 3 2 2 1 4 4 1 3 1 3 7 8 8 7 8 8 9 15 15 15 16 15 14 13 13 13 12 13 12 11 11 11 10 9 7 7 9 8 7 5 4 5
6 4 4 2 2 2 2 6 0 2 3 1 3 2 4 3 8 4 6 6 6 6 8 8 10 13 16 16 15 14 14 13 13 13 12 11 10 10 10 12 11 10 8 10 9 8 6 5 6
5 5 3 2 1 3 4 5 1 1 3 4 3 3 4 5 6 5 5 5 6 7 9 9 8 10 9 9 15 14 14 13 13 13 12 11 9 8 9 11 12 12 11 10 10 9 8 6 5
3 5 2 2 3 2 4 5 4 5 3 5 3 2 4 2 4 4 1 3 3 5 6 5 6 7 6 6 7 13 14 13 13 13 12 8 4 5 6 7 11 13 12 12 11 11 10 8 6
5 4 6 3 2 2 2 1 3 5 7 4 2 2 4 3 3 5 4 4 3 4 4 3 5 7 7 7 7 6 6 5 5 5 5 4 5 5 6 7 12 14 14 13 13 11 10 8 2
1 3 3 2 1 2 2 2 1 1 5 7 5 4 6 3 5 5 2 2 3 3 3 8 6 5 6 7 4 4 4 3 4 6 5 5 4 4 3 3 3 3 10 3 6 5 4 4 3
3 4 2 4 1 3 3 2 3 5 9 7 8 4 3 6 6 3 6 5 4 5 6 6 6 6 5 2 3 5 7 6 5 6 7 5 4 4 4 3 4 4 3 4 4 3 4 5 2
2 3 5 6 8 6 3 7 4 10 11 8 9 8 8 8 2 4 5 5 3 6 5 8 9 4 2 5 3 3 5 5 6 6 7 6 5 5 4 5 4 5 4 5 5 4 4 4 2
3 4 8 8 8 5 5 3 4 9 5 8 7 10 8 3 5 5 4 3 5 5 5 4 7 6 6 3 3 4 3 4 4 3 5 7 7 6 5 5 5 4 4 4 4 5 5 4 4
4 6 7 3 4 4 4 3 6 7 7 11 11 10 5 6 7 5 6 4 5 6 5 6 6 6 6 4 4 3 4 4 5 5 6 6 6 7 7 5 5 6 6 8 5 4 3 3 3
4 4 5 5 6 3 3 7 8 8 8 12 11 10 5 8 8 8 8 6 7 6 9 8 7 7 7 6 4 4 4 2 5 6 5 7 9 8 7 4 7 7 6 6 5 4 4 3 3
6 2 3 8 5 2 3 6 7 11 8 10 10 8 6 8 11 9 8 7 7 7 7 9 9 8 7 6 5 5 5 4 4 4 4 7 9 10 8 8 8 7 5 6 7 4 4 3 3
5 5 4 5 6 7 10 10 5 8 7 9 8 9 7 9 8 8 9 9 8 9 8 9 9 13 11 5 5 4 4 4 4 5 5 8 8 8 8 8 6 5 6 4 5 5 4 3 4
4 4 7 5 8 5 5 11 8 8 8 7 8 8 9 9 6 7 8 9 10 12 12 10 10 10 8 7 5 3 6 7 5 6 9 9 8 8 10 7 7 6 10 9 9 3 5 2 5
3 6 7 8 4 5 7 17 11 5 7 7 6 9 9 8 10 11 10 11 10 10 12 13 11 8 8 7 6 3 5 4 7 7 8 10 10 7 7 8 9 11 5 7 8 6 3 3 6
4 4 5 7 5 5 7 7 2 6 10 13 12 8 10 8 8 9 10 8 8 10 9 12 14 14 8 8 8 7 4 3 3 8 9 5 7 9 10 10 9 10 8 8 8 8 8 4 7
3 5 6 9 8 5 4 10 2 3 8 9 7 7 7 7 6 5 7 8 7 7 7 8 11 13 13 10 7 7 7 9 7 6 9 10 9 8 9 9 9 9 7 8 7 6 6 7 10
3 4 7 7 6 3 2 2 5 3 3 4 5 7 7 7 7 8 7 7 8 8 8 6 8 13 13 12 11 7 9 9 8 7 9 11 7 8 8 8 8 7 6 6 8 8 7 4 7
7 5 6 3 0 3 4 1 5 2 2 2 4 7 7 8 8 7 6 7 9 9 9 6 8 9 13 9 9 11 9 11 10 10 9 7 5 4 7 5 5 5 5 8 8 8 10 6 6
7 9 7 7 3 8 3 7 7 3 6 5 3 6 7 7 6 6 7 10 12 12 12 10 8 9 9 9 9 12 13 11 13 12 10 9 5 4 6 7 8 6 5 5 5 5 9 9 8
2 5 4 7 4 11 8 7 4 4 1 2 5 6 5 7 6 5 6 7 7 11 12 11 12 10 11 12 14 12 13 8 9 11 9 8 7 6 6 7 7 8 9 10 8 1 3 5 6
6 3 1 6 12 7 5 6 1 3 4 5 7 4 6 7 7 7 8 7 9 8 9 9 9 8 9 10 8 9 11 11 11 14 9 7 6 3 8 9 8 8 9 10 13 7 3 6 6
6 3 4 3 5 6 6 7 10 5 8 8 8 7 7 7 7 6 6 7 6 7 7 7 8 7 8 10 10 10 12 12 13 13 10 7 4 5 5 7 6 7 11 12 13 7 5 8 6
4 3 2 2 2 4 7 7 3 9 9 7 8 8 8 8 7 6 6 6 5 6 6 7 9 11 11 9 11 12 13 13 12 10 12 6 3 2 1 2 5 8 10 10 10 11 9 11 11
5 4 4 5 8 4 4 17 13 11 7 7 8 11 9 7 6 6 7 6 5 6 6 7 8 9 11 11 11 12 12 12 12 11 11 11 5 3 4 1 6 11 10 11 12 12 10 13 13
Wind_Direction
346 15 86 43 57 63 333 306 271 305 338 49 273 124 135 74 164 211 230 181 156 158 172 175 174 175 178 173 167 164 163 162 154 155 151 141 138 123 118 108 100 113 107 96 91 87 88 80 59
352 101 45 77 82 74 275 258 158 223 266 88 85 75 38 358 333 14 105 214 166 164 170 174 174 177 178 174 167 170 170 171 166 172 168 161 152 137 130 117 114 120 110 101 94 86 87 78 60
24 44 74 89 116 153 190 233 251 287 325 316 98 60 91 269 302 181 268 144 147 156 161 171 173 174 177 177 175 178 182 180 182 187 183 174 163 159 156 155 138 126 121 110 96 84 87 82 70
54 13 32 83 167 268 220 266 265 334 340 26 99 79 19 215 200 188 147 136 144 163 167 177 175 176 182 186 189 189 194 189 189 196 179 182 177 171 164 166 161 162 148 137 127 109 92 80 70
39 55 52 58 293 281 313 311 340 18 357 356 2 167 228 329 332 119 136 155 166 171 172 178 181 185 188 191 196 197 202 201 190 193 197 191 190 184 175 176 177 181 160 150 150 140 88 75 70
40 93 62 150 276 275 311 305 305 351 352 333 54 50 249 270 176 167 160 170 176 176 182 186 191 191 191 197 200 204 205 217 193 198 206 190 201 204 185 182 187 188 179 167 170 175 175 124 103
113 89 188 202 242 294 277 321 24 275 332 13 137 134 279 245 232 204 176 173 174 176 185 191 195 197 197 199 202 200 203 206 200 206 202 204 207 210 200 194 189 193 198 186 184 190 201 174 142
103 90 133 268 238 238 320 339 311 4 296 312 151 207 249 240 209 191 127 162 188 191 195 197 196 196 198 200 203 202 202 208 206 207 203 205 205 223 217 207 203 201 201 191 192 201 212 217 173
116 64 185 214 166 247 351 17 329 297 342 341 310 191 276 301 86 99 127 186 196 216 210 203 200 201 196 199 208 208 211 214 213 208 200 202 188 223 221 200 213 212 211 208 205 206 223 226 220
84 113 214 213 218 243 297 324 303 360 349 306 324 332 347 26 76 152 200 228 235 268 277 263 230 209 196 204 201 196 197 202 200 193 189 182 197 208 210 210 211 218 216 215 212 214 221 233 211
142 190 215 262 301 277 282 265 245 318 290 233 252 257 328 324 324 315 34 58 45 338 214 208 221 228 229 225 196 199 201 192 192 190 190 200 207 209 212 206 223 226 223 220 222 225 221 236 173
338 257 241 287 338 346 260 282 271 205 239 245 250 236 267 260 255 262 99 87 78 42 10 346 227 191 216 262 264 203 213 209 204 199 198 202 212 210 213 213 208 199 209 204 219 223 203 220 171
193 298 322 295 288 250 269 246 247 271 263 275 280 282 243 247 193 112 115 78 93 65 31 32 41 15 266 229 268 263 242 214 216 202 204 198 203 211 202 223 212 209 199 189 203 211 197 218 218
307 283 290 291 287 262 231 299 141 278 336 305 309 289 303 255 177 144 118 102 65 68 48 38 56 38 42 45 284 251 257 272 251 221 219 209 214 213 200 198 219 213 202 210 203 215 194 196 171
318 329 327 294 327 310 159 352 248 289 345 306 307 291 4 42 78 88 73 59 26 21 20 34 49 29 32 9 358 300 231 207 221 231 221 221 216 230 205 192 203 211 206 198 181 191 156 182 187
12 42 359 294 348 28 98 272 293 336 9 317 318 315 47 46 50 43 48 49 21 15 16 11 19 16 16 14 356 336 322 228 234 234 223 222 222 211 213 201 222 211 192 193 172 183 188 205 193
8 287 285 314 344 349 54 265 283 316 327 302 301 317 90 71 46 33 30 30 25 20 10 5 359 8 357 359 351 337 319 290 251 243 254 254 240 219 203 203 214 194 193 193 177 182 157 158 179
295 307 283 263 296 330 305 278 288 308 323 297 329 357 87 65 39 27 21 18 16 19 18 14 8 3 355 344 333 333 324 310 296 278 243 239 235 230 194 216 223 196 179 193 179 175 149 147 150
310 277 276 261 272 299 252 283 272 272 275 333 21 67 69 52 17 26 21 12 16 18 15 9 6 352 351 346 340 359 339 316 294 287 279 265 247 214 183 199 178 161 214 183 179 150 159 113 131
300 286 287 283 333 318 298 292 276 281 40 27 63 61 54 37 24 10 11 14 13 4 2 1 2 355 336 349 333 305 326 316 300 294 274 263 252 214 193 191 188 187 162 165 167 143 134 130 175
338 3 323 281 309 242 316 307 106 64 54 61 41 46 38 33 18 7 7 4 1 7 356 358 350 345 337 343 331 332 312 283 307 317 309 287 252 213 206 189 180 171 168 172 169 175 160 160 184
302 334 325 316 343 302 64 287 1 61 68 48 22 29 16 7 353 349 350 349 350 345 341 343 349 339 337 340 331 326 314 317 319 297 289 289 247 223 208 182 178 175 168 170 170 176 168 157 192
301 305 291 274 259 321 253 277 258 173 52 20 357 7 359 341 342 338 331 323 320 326 329 349 349 341 334 332 348 315 312 302 309 296 282 282 252 221 209 184 176 164 158 156 147 146 155 146 184
294 325 294 323 168 300 128 29 278 324 274 170 31 12 346 337 335 336 324 326 334 329 326 340 352 352 319 331 330 303 312 298 316 305 295 293 256 212 205 188 164 161 166 162 170 149 133 176 190
20 25 334 337 6 262 8 345 252 61 21 59 27 319 322 313 331 334 332 336 333 330 326 325 328 329 312 309 337 319 304 307 303 297 295 298 248 218 195 177 174 189 149 138 118 143 153 195 157
341 117 177 278 277 296 313 251 269 124 77 280 269 268 296 322 308 312 313 315 330 332 329 324 311 318 324 346 344 314 308 304 295 293 286 286 258 233 204 177 157 158 145 127 114 270 160 166 137
328 52 313 263 266 289 245 300 195 219 320 321 299 301 346 300 301 325 331 329 333 334 329 320 319 322 336 325 316 307 303 320 298 312 289 284 274 247 199 174 166 175 158 158 143 133 186 144 125
105 249 338 306 309 293 293 291 273 232 266 277 304 314 305 299 299 313 319 326 329 330 316 328 329 329 329 330 332 326 315 311 318 320 291 281 291 238 185 168 152 164 144 146 131 120 149 130 127
355 327 31 187 257 269 304 274 239 257 261 269 277 285 274 268 269 285 301 303 315 316 336 329 328 338 334 337 327 328 317 314 321 314 308 279 292 356 64 181 176 148 142 139 141 135 145 133 111
180 186 124 131 285 238 248 272 269 279 249 239 268 283 275 264 275 281 299 312 332 337 329 320 329 332 334 328 326 318 311 315 312 314 304 303 285 342 10 186 175 159 150 141 131 133 139 126 116